Terminal Aerodrome Forecast
Issued by NWS

Home | Current Version | Previous Version | Text Only | Print | Product List | Glossary Off
Versions: 1 2 3 4 5 6 7 8 9 10 11 12

000
FTUS43 KUNR 141100
TAFGCC
TAF
KGCC 141122Z 1412/1512 14009KT P6SM SKC
     FM142000 VRB06KT P6SM SKC=

USA.gov is the U.S. government's official web portal to all federal, state and local government web resources and services.